This is the latest recevied weather packets stored in our database for station/object K4DNM. If no packets are shown the sender has not sent any weather packets the latest 10 day(s).
| Time | Temp. | Humidity | Pressure | Rain* | Wind** | Luminosity | Snow |
|---|---|---|---|---|---|---|---|
| 1777615095 | 13.33° C | 58% | 1012.6 hPa | 0 mm | - | 0 W/m² | - |
| 1777614934 | 13.33° C | 58% | 1012.5 hPa | 0 mm | - | 0 W/m² | - |
| 1777614495 | 13.33° C | 59% | 1012.6 hPa | 0 mm | - | 0 W/m² | - |
| 1777614195 | 13.33° C | 59% | 1012.4 hPa | 0 mm | - | 0 W/m² | - |
| 1777613956 | 13.33° C | 59% | 1012.3 hPa | 0 mm | - | 0 W/m² | - |
| 1777613654 | 13.89° C | 58% | 1012.4 hPa | 0 mm | - | 0 W/m² | - |
| 1777613294 | 13.89° C | 57% | 1012.4 hPa | 0 mm | - | 0 W/m² | - |
| 1777612994 | 13.89° C | 58% | 1012.2 hPa | 0 mm | - | 0 W/m² | - |
| 1777612689 | 13.89° C | 57% | 1012.2 hPa | 0 mm | - | 0 W/m² | - |
| 1777612389 | 13.89° C | 58% | 1012.1 hPa | 0 mm | - | 0 W/m² | - |
| 1777612089 | 13.89° C | 58% | 1012.1 hPa | 0 mm | - | 0 W/m² | - |
| 1777611789 | 13.89° C | 60% | 1012.2 hPa | 0 mm | - | 0 W/m² | - |
| 1777611631 | 13.33° C | 62% | 1012.3 hPa | 0 mm | - | 0 W/m² | - |
| 1777611189 | 13.33° C | 63% | 1012.1 hPa | 0 mm | - | 0 W/m² | - |
| 1777610890 | 13.33° C | 65% | 1012 hPa | 0 mm | - | 0 W/m² | - |
| 1777610590 | 12.78° C | 67% | 1012 hPa | 0 mm | - | 0 W/m² | - |
| 1777610290 | 12.22° C | 71% | 1011.9 hPa | 0 mm | - | 0 W/m² | - |
| 1777610049 | 12.22° C | 81% | 1011.8 hPa | 0 mm | - | 0 W/m² | - |
| 1777609747 | 12.22° C | 80% | 1011.8 hPa | 0 mm | - | 0 W/m² | - |
| 1777609388 | 12.22° C | 80% | 1011.7 hPa | 0 mm | - | 0 W/m² | - |
| 1777609087 | 12.78° C | 80% | 1011.6 hPa | 0 mm | - | 0 W/m² | - |
| 1777608788 | 12.78° C | 80% | 1011.6 hPa | 0 mm | - | 0 W/m² | - |
| 1777608487 | 12.78° C | 80% | 1011.6 hPa | 0 mm | - | 0 W/m² | - |
| 1777608247 | 13.33° C | 79% | 1011.6 hPa | 0 mm | - | 0 W/m² | - |
| 1777607887 | 13.33° C | 75% | 1011.6 hPa | 0 mm | - | 0 W/m² | - |
* Rain latest hour (hover to see other rain measurements)
** Current wind speed in m/s (hover to see current wind gust speed)